Temp
-5 -5 -5 -5 -4 -4 -4 -4 -3 -3 -3 -3 -3 -3 -3 -3 -3 -3 -3 -3 -3 -3 -3 -3 -3 -3 -4 -4 -4 -5 -4 -4 -5 -5 -4 -5 -5 -5 -4 -5 -5 -5 -5 -5 -5
-5 -5 -5 -5 -5 -4 -4 -4 -4 -4 -3 -3 -3 -3 -3 -3 -3 -3 -3 -3 -3 -3 -3 -3 -3 -3 -3 -4 -5 -5 -4 -4 -5 -4 -6 -5 -5 -5 -5 -5 -5 -5 -4 -5 -6
-5 -5 -5 -5 -5 -5 -5 -4 -4 -4 -4 -4 -3 -3 -3 -3 -3 -3 -3 -3 -3 -3 -3 -3 -3 -3 -3 -4 -4 -5 -4 -5 -5 -5 -7 -5 -5 -4 -4 -5 -5 -5 -5 -5 -5
-6 -6 -6 -5 -5 -5 -5 -5 -4 -4 -4 -4 -4 -4 -4 -3 -3 -4 -3 -4 -3 -3 -3 -3 -3 -3 -4 -4 -6 -5 -4 -5 -6 -6 -5 -4 -5 -4 -5 -5 -5 -5 -5 -5 -5
-6 -6 -6 -6 -5 -5 -5 -5 -5 -5 -5 -4 -4 -4 -4 -4 -4 -4 -4 -4 -4 -4 -3 -3 -3 -4 -4 -4 -5 -6 -4 -5 -5 -5 -6 -6 -5 -4 -5 -5 -5 -5 -5 -5 -5
-6 -6 -6 -6 -6 -6 -6 -6 -5 -5 -5 -5 -5 -5 -4 -4 -4 -4 -4 -4 -4 -4 -4 -4 -4 -4 -4 -5 -5 -5 -5 -6 -6 -5 -5 -4 -5 -5 -5 -5 -5 -5 -5 -6 -6
-7 -7 -7 -7 -7 -6 -6 -6 -6 -6 -6 -6 -5 -5 -5 -4 -4 -4 -4 -4 -4 -4 -4 -4 -4 -5 -5 -5 -5 -6 -6 -5 -5 -5 -5 -4 -4 -5 -5 -5 -4 -5 -6 -6 -6
-7 -7 -7 -7 -7 -6 -6 -6 -6 -6 -6 -6 -6 -5 -5 -5 -5 -4 -4 -5 -5 -5 -5 -5 -5 -5 -6 -6 -5 -5 -5 -5 -5 -5 -5 -5 -6 -5 -4 -4 -4 -5 -5 -6 -6
-7 -7 -7 -7 -7 -6 -6 -6 -6 -6 -6 -6 -6 -6 -5 -5 -5 -5 -5 -5 -5 -6 -6 -6 -6 -5 -4 -5 -5 -6 -6 -6 -6 -7 -5 -5 -4 -4 -4 -4 -5 -5 -5 -5 -6
-7 -7 -7 -7 -7 -6 -6 -6 -6 -6 -6 -6 -6 -6 -6 -5 -5 -5 -6 -5 -6 -7 -7 -6 -6 -6 -5 -5 -5 -6 -6 -6 -5 -6 -5 -5 -5 -5 -5 -5 -4 -4 -6 -5 -6
-7 -7 -7 -7 -7 -7 -6 -6 -6 -6 -6 -6 -6 -6 -6 -6 -6 -5 -6 -6 -6 -7 -7 -6 -7 -6 -5 -6 -6 -6 -5 -5 -4 -5 -5 -7 -6 -6 -5 -5 -4 -5 -5 -5 -6
-7 -7 -7 -7 -7 -7 -7 -7 -7 -6 -6 -7 -7 -6 -6 -6 -6 -6 -6 -6 -7 -7 -6 -7 -7 -7 -7 -7 -6 -7 -5 -6 -6 -6 -5 -7 -6 -6 -5 -6 -5 -5 -5 -5 -5
-7 -7 -7 -8 -8 -8 -7 -7 -7 -7 -7 -7 -7 -7 -7 -7 -7 -7 -7 -7 -7 -9 -5 -6 -7 -7 -6 -6 -7 -6 -6 -7 -7 -5 -5 -5 -4 -5 -5 -5 -6 -5 -4 -5 -4
-7 -7 -8 -8 -8 -7 -7 -7 -7 -7 -6 -7 -7 -7 -7 -7 -7 -7 -8 -7 -8 -8 -7 -6 -7 -7 -7 -6 -7 -6 -7 -7 -6 -6 -6 -5 -6 -5 -5 -5 -5 -6 -6 -6 -5
-7 -7 -7 -7 -8 -8 -8 -8 -8 -8 -8 -8 -7 -7 -7 -7 -8 -8 -8 -8 -8 -9 -6 -7 -8 -7 -7 -7 -7 -7 -7 -6 -6 -5 -5 -7 -6 -6 -6 -5 -5 -5 -5 -6 -6
-6 -7 -7 -7 -8 -7 -8 -8 -8 -8 -8 -8 -8 -7 -7 -8 -9 -10 -9 -8 -8 -8 -8 -7 -7 -7 -7 -5 -7 -7 -6 -7 -6 -7 -6 -7 -7 -7 -6 -5 -5 -5 -5 -6 -6
-6 -6 -7 -7 -7 -7 -7 -8 -7 -8 -8 -9 -8 -7 -7 -8 -9 -10 -9 -8 -8 -7 -8 -8 -6 -6 -6 -7 -6 -7 -7 -6 -7 -6 -6 -7 -6 -7 -7 -5 -5 -5 -5 -5 -6
-6 -6 -6 -6 -6 -7 -7 -7 -7 -8 -8 -8 -9 -9 -9 -9 -9 -9 -9 -8 -7 -8 -8 -8 -7 -6 -7 -6 -7 -7 -7 -7 -7 -7 -6 -6 -6 -7 -6 -6 -5 -5 -5 -6 -6
-5 -6 -6 -6 -6 -6 -7 -7 -7 -8 -8 -8 -9 -8 -8 -9 -9 -9 -9 -9 -8 -8 -8 -8 -6 -7 -6 -6 -7 -6 -7 -7 -6 -6 -7 -6 -6 -6 -6 -6 -6 -5 -6 -5 -6
-5 -5 -5 -6 -6 -6 -7 -7 -7 -7 -7 -8 -8 -8 -7 -8 -9 -8 -8 -8 -8 -8 -8 -8 -8 -8 -6 -7 -7 -6 -6 -7 -6 -7 -7 -6 -5 -7 -6 -6 -6 -6 -5 -6 -5
-5 -5 -5 -5 -6 -6 -6 -8 -8 -8 -7 -8 -8 -8 -8 -8 -8 -8 -8 -8 -8 -8 -7 -8 -8 -7 -7 -7 -7 -7 -6 -6 -7 -6 -7 -7 -7 -7 -6 -7 -6 -6 -6 -6 -5
-5 -5 -5 -5 -5 -6 -6 -9 -7 -8 -9 -7 -8 -8 -8 -8 -8 -8 -8 -7 -8 -7 -8 -8 -8 -7 -7 -6 -7 -7 -7 -6 -7 -7 -7 -7 -7 -6 -6 -7 -6 -6 -6 -6 -6
-5 -5 -5 -5 -5 -5 -7 -9 -9 -7 -7 -9 -9 -9 -8 -8 -8 -8 -8 -8 -8 -7 -7 -7 -8 -7 -7 -6 -6 -6 -7 -7 -7 -7 -7 -7 -6 -7 -6 -7 -6 -6 -5 -5 -5
-5 -5 -5 -5 -6 -6 -6 -6 -6 -6 -7 -6 -6 -7 -8 -9 -9 -8 -8 -8 -8 -7 -7 -7 -7 -8 -7 -6 -7 -6 -6 -7 -7 -6 -6 -7 -6 -7 -7 -7 -7 -6 -6 -5 -5
-5 -5 -5 -5 -5 -5 -6 -6 -6 -6 -6 -6 -6 -6 -7 -8 -8 -8 -7 -8 -8 -8 -7 -7 -7 -8 -8 -7 -7 -7 -6 -6 -7 -6 -6 -6 -6 -7 -7 -7 -6 -6 -6 -5 -5
-5 -5 -6 -6 -6 -6 -6 -6 -5 -5 -5 -6 -7 -6 -5 -6 -6 -5 -6 -7 -7 -8 -8 -7 -7 -8 -8 -8 -7 -6 -6 -6 -7 -7 -6 -7 -6 -7 -6 -7 -6 -6 -6 -6 -5
-5 -5 -6 -6 -6 -6 -5 -5 -6 -6 -6 -6 -5 -5 -6 -7 -5 -5 -6 -7 -7 -7 -8 -8 -7 -8 -8 -7 -7 -7 -7 -6 -7 -6 -6 -6 -6 -8 -7 -6 -5 -6 -6 -6 -5
Height
5908 5908 5909 5909 5910 5909 5910 5910 5911 5911 5911 5911 5911 5911 5911 5911 5910 5910 5910 5911 5910 5909 5909 5908 5907 5905 5903 5901 5900 5898 5898 5892 5890 5895 5887 5898 5900 5900 5899 5899 5898 5895 5895 5896 5897
5903 5904 5905 5906 5907 5907 5907 5908 5909 5909 5909 5910 5910 5910 5911 5910 5910 5911 5912 5911 5910 5910 5910 5909 5908 5906 5904 5901 5900 5899 5900 5899 5892 5894 5894 5898 5900 5900 5898 5896 5896 5893 5891 5893 5893
5897 5899 5901 5903 5904 5904 5905 5905 5906 5907 5907 5908 5908 5909 5909 5909 5910 5911 5911 5911 5911 5911 5910 5910 5908 5906 5903 5901 5900 5900 5891 5889 5892 5895 5898 5902 5899 5898 5897 5896 5893 5890 5888 5889 5890
5894 5894 5896 5898 5899 5900 5901 5903 5904 5905 5905 5906 5906 5907 5907 5908 5910 5909 5910 5911 5911 5911 5911 5909 5908 5906 5903 5901 5899 5897 5897 5895 5894 5893 5901 5902 5898 5897 5895 5894 5891 5891 5890 5889 5889
5890 5890 5891 5892 5894 5896 5898 5900 5901 5902 5903 5904 5904 5905 5905 5906 5907 5908 5909 5910 5910 5911 5911 5909 5907 5905 5901 5900 5896 5895 5895 5895 5897 5900 5900 5899 5896 5895 5894 5892 5889 5888 5888 5887 5887
5886 5885 5886 5887 5889 5892 5895 5896 5898 5899 5900 5901 5902 5902 5904 5905 5905 5907 5908 5909 5910 5910 5909 5907 5905 5903 5901 5899 5897 5895 5889 5893 5895 5897 5897 5897 5896 5895 5893 5891 5890 5887 5887 5885 5885
5881 5881 5882 5883 5885 5887 5891 5893 5894 5896 5897 5898 5898 5900 5901 5903 5904 5905 5907 5908 5908 5908 5906 5905 5904 5903 5902 5899 5896 5894 5893 5894 5895 5897 5897 5897 5895 5894 5892 5890 5889 5888 5885 5884 5882
5877 5878 5879 5881 5882 5884 5887 5890 5891 5892 5893 5894 5894 5895 5897 5898 5900 5903 5904 5904 5905 5904 5903 5903 5902 5901 5901 5899 5895 5894 5893 5891 5896 5896 5895 5896 5895 5894 5891 5890 5890 5887 5884 5882 5880
5875 5874 5875 5878 5881 5882 5885 5887 5888 5889 5889 5890 5891 5892 5893 5895 5896 5900 5900 5901 5902 5900 5900 5902 5901 5900 5901 5898 5897 5896 5888 5892 5890 5890 5895 5894 5894 5892 5890 5890 5890 5886 5883 5882 5876
5876 5874 5874 5876 5879 5881 5882 5884 5885 5885 5886 5887 5888 5890 5891 5892 5894 5896 5897 5900 5900 5900 5900 5892 5896 5898 5905 5901 5892 5898 5895 5894 5890 5888 5894 5894 5893 5892 5892 5891 5890 5887 5884 5883 5884
5878 5877 5876 5876 5878 5879 5880 5881 5883 5883 5884 5885 5886 5887 5888 5890 5892 5894 5895 5897 5897 5898 5894 5877 5894 5894 5905 5901 5896 5901 5895 5893 5892 5892 5895 5895 5895 5894 5893 5891 5888 5888 5883 5884 5884
5882 5880 5879 5879 5879 5880 5880 5880 5880 5882 5884 5884 5885 5885 5887 5888 5890 5891 5894 5895 5895 5897 5896 5891 5896 5894 5896 5891 5893 5894 5891 5890 5890 5894 5894 5896 5896 5894 5894 5892 5889 5890 5889 5886 5885
5885 5883 5882 5882 5882 5883 5882 5882 5881 5882 5883 5884 5884 5885 5885 5887 5887 5889 5891 5893 5893 5897 5872 5884 5895 5887 5893 5886 5883 5899 5896 5888 5893 5897 5898 5898 5898 5896 5895 5893 5891 5890 5891 5889 5888
5889 5887 5886 5886 5887 5885 5884 5884 5883 5883 5884 5886 5885 5884 5883 5883 5884 5885 5888 5891 5892 5901 5883 5889 5897 5893 5886 5895 5899 5902 5899 5895 5898 5896 5897 5899 5900 5896 5895 5894 5894 5892 5892 5892 5893
5891 5890 5889 5888 5889 5888 5887 5886 5886 5887 5891 5888 5885 5884 5881 5882 5882 5885 5885 5886 5888 5894 5887 5892 5898 5897 5900 5902 5905 5905 5903 5901 5894 5896 5897 5894 5896 5897 5895 5895 5895 5894 5895 5896 5898
5893 5892 5891 5891 5890 5890 5889 5889 5889 5889 5894 5891 5888 5885 5883 5881 5881 5884 5883 5886 5888 5890 5895 5897 5899 5901 5905 5901 5905 5905 5902 5901 5898 5897 5895 5894 5897 5894 5897 5898 5896 5896 5897 5897 5899
5895 5894 5893 5892 5892 5892 5892 5892 5892 5891 5898 5896 5891 5888 5885 5883 5884 5888 5886 5887 5890 5893 5894 5896 5898 5901 5901 5900 5902 5897 5898 5894 5898 5898 5896 5898 5902 5900 5900 5899 5899 5899 5898 5899 5900
5896 5895 5895 5894 5894 5894 5894 5896 5893 5904 5901 5897 5896 5892 5891 5890 5891 5892 5890 5891 5893 5895 5892 5896 5900 5896 5898 5895 5906 5896 5892 5894 5893 5897 5895 5904 5905 5906 5904 5902 5901 5901 5900 5900 5901
5896 5896 5896 5895 5895 5895 5896 5896 5902 5905 5902 5901 5899 5900 5899 5897 5896 5896 5896 5896 5893 5899 5901 5902 5900 5900 5901 5900 5908 5909 5906 5900 5894 5890 5892 5887 5905 5907 5905 5905 5904 5901 5901 5901 5901
5897 5897 5896 5896 5895 5896 5897 5896 5896 5902 5901 5902 5901 5904 5906 5902 5899 5900 5901 5901 5901 5900 5901 5902 5900 5902 5900 5904 5908 5909 5911 5904 5898 5900 5895 5899 5894 5903 5907 5906 5906 5905 5902 5902 5901
5899 5899 5897 5897 5897 5896 5896 5896 5904 5903 5900 5900 5902 5902 5906 5905 5903 5903 5904 5904 5901 5900 5900 5900 5903 5902 5904 5907 5910 5907 5905 5904 5904 5902 5903 5901 5902 5897 5903 5908 5907 5907 5905 5902 5902
5899 5899 5898 5897 5898 5897 5896 5899 5900 5899 5901 5898 5899 5900 5903 5905 5904 5905 5905 5906 5899 5898 5899 5903 5902 5905 5909 5912 5909 5908 5905 5906 5906 5902 5896 5902 5905 5904 5902 5903 5908 5907 5907 5904 5902
5897 5897 5897 5897 5897 5896 5895 5900 5899 5896 5896 5897 5899 5898 5901 5901 5902 5903 5902 5904 5897 5897 5896 5897 5900 5903 5905 5909 5910 5908 5904 5905 5905 5903 5910 5897 5903 5898 5899 5903 5907 5907 5905 5905 5903
5895 5894 5894 5893 5893 5893 5892 5893 5893 5893 5893 5892 5892 5891 5892 5894 5897 5898 5900 5900 5896 5895 5894 5894 5894 5898 5903 5905 5905 5906 5909 5907 5908 5906 5909 5905 5901 5900 5897 5890 5907 5907 5905 5904 5902
5890 5890 5889 5889 5888 5889 5888 5889 5888 5889 5888 5888 5888 5888 5888 5888 5890 5895 5893 5891 5896 5892 5892 5892 5890 5892 5895 5898 5901 5903 5902 5903 5904 5904 5908 5903 5903 5895 5891 5888 5905 5906 5904 5904 5902
5885 5884 5884 5884 5883 5883 5883 5882 5883 5882 5884 5884 5882 5881 5883 5883 5878 5880 5881 5884 5887 5887 5888 5889 5888 5889 5888 5890 5894 5897 5899 5895 5896 5891 5903 5901 5900 5895 5897 5894 5901 5904 5904 5903 5902
5878 5878 5878 5878 5877 5877 5874 5878 5877 5876 5878 5878 5872 5877 5879 5876 5875 5876 5877 5881 5883 5881 5882 5885 5884 5889 5888 5890 5890 5890 5896 5898 5892 5896 5899 5901 5902 5896 5894 5895 5896 5900 5901 5901 5900
Wind_Speed
15 13 10 9 9 10 9 8 6 4 2 2 1 1 2 3 4 6 7 8 9 11 13 14 16 16 14 7 5 8 9 9 11 3 14 8 8 4 8 8 15 15 13 15 12
22 16 14 10 10 11 11 10 9 8 6 5 4 3 2 2 1 2 4 5 7 9 10 13 14 14 15 9 6 6 9 15 6 2 8 3 6 8 11 6 12 13 14 15 16
13 22 16 15 13 13 12 11 10 10 9 8 7 6 5 5 4 1 1 2 4 7 9 11 14 15 16 15 13 9 20 15 16 4 4 5 8 11 11 6 10 12 19 16 16
10 10 24 19 18 15 16 14 11 9 9 10 10 9 9 7 5 5 3 1 1 4 8 11 13 14 15 18 10 6 8 11 7 5 6 11 7 10 12 9 11 12 9 11 13
12 13 11 26 21 18 14 15 15 14 11 10 10 9 9 7 7 5 5 5 4 4 7 9 12 13 14 16 14 6 8 6 5 9 4 8 6 9 8 10 11 10 11 14 12
16 16 16 19 26 18 17 14 14 17 15 15 15 13 10 10 10 7 6 6 4 5 8 9 10 10 12 12 11 9 4 4 5 7 4 3 5 7 7 8 9 10 11 12 13
13 14 12 15 20 24 18 18 18 18 16 16 18 17 17 15 14 11 9 7 5 7 8 8 8 9 7 10 18 7 7 4 4 2 0 4 4 5 6 8 8 7 11 11 11
10 11 12 8 8 17 17 17 18 16 18 16 17 17 18 17 16 14 15 11 8 10 9 9 5 4 5 10 10 15 9 14 6 1 1 4 5 6 8 8 6 10 10 7 1
10 5 11 12 7 4 8 11 14 18 19 18 17 17 17 16 19 16 12 10 10 12 10 8 5 5 2 8 20 23 11 10 13 8 1 4 8 9 10 6 7 10 8 5 9
14 10 3 6 12 8 10 13 17 19 15 13 12 12 12 13 10 9 10 9 13 8 8 16 11 7 4 12 7 22 18 8 6 5 3 3 8 12 12 7 9 9 8 5 5
17 14 11 7 3 8 8 7 6 6 6 6 8 9 9 9 9 10 10 10 11 12 19 28 4 9 7 11 15 12 14 10 2 4 3 6 8 10 11 11 11 12 13 3 2
17 14 13 13 11 10 7 4 3 3 2 3 5 8 10 10 10 11 11 11 12 12 15 24 15 18 9 7 5 7 11 12 5 4 8 3 6 10 7 11 12 10 10 4 7
19 16 17 19 19 17 12 9 5 4 3 1 5 8 12 12 13 14 14 14 14 7 25 16 16 14 2 18 23 23 14 14 3 4 6 8 3 7 6 8 10 10 11 10 8
18 16 16 17 16 15 16 13 12 5 2 18 8 6 8 12 15 18 17 18 17 9 31 26 6 4 17 14 6 14 10 12 10 3 11 4 2 7 6 6 7 10 9 10 10
15 16 14 13 15 19 20 22 22 15 11 18 10 7 4 6 8 9 16 20 19 15 20 10 14 8 12 11 3 5 9 6 13 22 11 3 8 13 15 6 4 7 8 7 7
13 14 14 13 13 16 19 24 17 22 12 16 10 8 6 6 4 4 9 14 16 13 3 8 6 2 3 6 9 4 5 5 9 11 11 12 16 13 17 9 4 4 4 4 4
10 12 13 13 12 14 17 17 21 28 13 13 11 12 13 14 11 4 3 3 4 10 10 4 7 8 5 8 11 13 16 10 9 15 6 12 4 16 9 16 12 6 1 0 2
7 9 10 11 12 13 16 16 23 7 8 7 4 8 6 3 7 5 7 8 7 3 15 5 6 10 8 8 10 20 22 23 21 23 15 9 12 4 8 9 10 13 7 2 4
7 7 7 7 8 11 10 18 11 2 2 3 11 11 10 4 3 5 6 11 13 6 6 9 12 14 8 4 10 8 17 16 11 12 24 25 14 5 10 13 11 11 11 6 6
7 9 7 6 7 8 8 14 4 11 1 3 7 7 6 9 2 2 6 7 7 10 10 10 18 12 1 8 9 9 5 16 18 7 3 13 20 12 8 12 12 9 11 6 4
7 6 6 5 5 6 6 16 11 11 2 6 5 2 3 7 4 3 5 6 13 2 7 6 8 12 5 12 4 17 14 9 8 10 7 10 11 13 13 10 9 8 11 8 4
8 5 2 2 1 2 1 3 11 12 7 4 7 8 1 3 8 7 3 9 19 17 5 8 6 9 11 12 18 12 23 15 12 12 18 17 11 13 10 10 8 6 7 6 7
11 11 9 7 6 6 4 10 15 11 10 6 9 4 8 9 8 6 8 12 26 20 15 10 8 9 9 10 9 15 18 16 15 12 13 16 17 3 7 4 5 10 10 7 4
16 15 13 14 14 13 14 12 12 12 13 13 13 13 13 13 9 10 11 11 21 13 17 15 15 10 11 12 13 12 16 19 12 19 14 10 22 23 19 13 4 8 9 5 4
20 19 19 18 18 15 18 17 18 17 18 16 14 14 15 15 13 11 20 19 15 20 16 15 14 13 14 15 16 17 23 23 17 11 17 19 17 22 22 9 2 7 8 6 4
22 21 22 22 22 21 21 22 20 23 17 13 22 22 18 19 20 20 20 25 21 10 25 15 14 12 22 19 14 21 16 27 22 8 13 16 18 13 16 7 10 8 9 10 4
25 25 24 23 25 26 30 24 25 25 24 23 32 23 17 24 26 23 22 18 23 23 17 14 15 13 20 16 24 18 14 20 24 13 16 13 12 24 19 23 20 17 12 13 13
Wind_Direction
250 252 250 241 243 245 242 241 235 235 242 235 227 131 90 60 57 58 56 59 61 47 45 35 27 23 31 16 316 264 244 273 168 174 144 332 336 343 318 295 280 294 289 296 283
242 239 244 233 231 240 241 237 235 231 231 240 235 228 213 189 157 67 44 32 28 36 36 28 22 14 2 352 303 283 275 259 127 270 22 169 319 300 318 324 297 291 295 290 286
262 232 228 225 220 223 229 236 235 231 226 231 234 231 226 219 224 222 8 13 19 13 16 22 10 360 352 346 343 272 313 285 195 193 132 270 299 318 318 317 285 266 316 303 295
268 262 229 226 224 225 231 226 228 224 218 230 236 234 236 236 249 275 283 270 356 4 6 357 0 356 351 348 314 279 270 289 27 72 264 293 295 311 319 322 307 292 311 319 297
262 266 267 232 228 224 227 240 240 241 238 230 236 233 234 232 245 257 282 304 332 349 347 346 345 353 356 353 329 312 187 246 288 244 190 274 307 326 321 323 324 317 313 307 296
271 269 262 242 236 232 230 229 247 258 258 259 251 253 246 249 257 253 285 290 324 321 339 332 324 349 336 357 321 297 286 270 249 243 284 296 325 326 314 325 329 321 306 307 294
290 259 258 251 245 244 241 244 250 260 267 267 264 262 260 260 267 270 290 281 261 283 302 291 309 341 344 19 4 345 310 222 165 169 235 334 327 329 338 331 323 323 312 318 315
286 262 261 251 235 231 241 252 253 261 274 271 262 265 266 264 266 274 285 260 241 259 261 262 316 314 77 315 13 348 312 188 153 270 325 351 333 342 340 338 335 325 338 327 52
1 291 247 233 251 232 229 252 268 271 268 263 263 262 269 264 263 269 264 256 241 241 246 270 268 232 51 32 26 2 20 179 176 179 353 345 359 15 2 344 11 3 352 73 154
27 33 58 201 238 255 263 260 259 265 260 261 260 254 249 248 250 247 238 234 225 244 258 242 214 191 230 62 27 6 23 26 296 113 358 355 48 33 12 25 47 30 359 351 115
43 52 64 82 162 236 244 242 236 236 248 250 248 250 235 232 229 225 225 216 222 233 242 270 25 103 80 75 76 311 350 315 96 52 174 78 46 35 18 26 55 43 34 18 130
48 60 72 79 83 88 92 101 136 165 177 247 254 256 251 246 237 228 219 217 214 229 268 284 127 116 151 128 78 336 263 261 138 197 116 27 85 51 18 22 53 66 52 36 129
54 71 83 87 84 82 77 80 92 115 143 23 288 259 258 255 242 230 228 221 222 286 292 304 122 122 310 52 40 14 331 44 86 160 134 105 49 52 28 32 47 54 87 71 93
58 75 89 90 90 73 63 66 65 88 129 8 341 305 263 246 246 238 239 229 222 238 286 309 158 237 88 60 86 30 24 13 45 325 122 136 147 52 32 35 42 69 60 79 109
57 71 87 93 87 72 68 71 62 64 90 348 4 348 286 252 230 253 241 234 239 213 259 315 199 53 29 81 5 347 51 175 238 258 173 346 258 62 41 26 44 58 71 90 125
59 63 72 83 88 85 78 65 70 56 18 358 14 34 66 58 152 289 265 240 249 249 348 4 56 223 325 110 17 85 253 215 232 17 47 4 7 71 48 41 63 84 56 60 109
55 63 64 73 84 83 80 70 58 54 330 350 354 38 61 51 80 254 12 231 258 127 306 149 194 192 161 68 301 246 246 233 237 113 92 2 7 49 28 37 49 55 62 91 38
57 66 66 69 78 85 99 89 81 69 13 25 32 23 22 358 1 281 47 71 56 311 273 338 228 230 206 112 269 271 340 354 132 128 151 114 76 96 48 27 36 48 40 270 243
58 63 78 76 80 94 74 70 41 3 24 335 19 20 356 310 178 299 304 272 300 347 300 297 243 268 221 115 287 301 337 305 328 324 171 119 107 90 52 44 35 32 37 25 237
65 72 73 84 97 105 105 82 84 301 206 18 37 347 334 310 313 323 313 314 303 287 239 258 292 35 27 293 292 309 317 334 344 244 36 111 140 121 61 38 38 27 18 18 15
36 44 63 81 99 123 90 46 326 312 317 151 157 206 104 313 283 290 287 326 310 289 273 264 256 334 326 288 272 274 265 241 279 267 333 189 60 123 88 25 39 58 28 7 2
338 347 357 43 33 183 192 114 256 240 305 273 196 193 246 277 282 294 261 288 266 275 221 276 249 231 240 270 293 271 286 323 322 343 331 322 318 207 97 68 356 355 14 10 341
315 309 303 288 276 265 296 268 282 269 262 251 271 226 273 261 242 263 264 264 282 295 265 242 242 277 287 288 284 272 292 310 327 303 285 315 315 167 126 60 328 339 331 340 325
301 293 288 285 276 270 266 265 254 257 273 273 274 254 228 238 248 262 265 260 276 299 290 271 251 233 249 249 266 227 264 263 254 279 308 280 291 293 235 147 278 343 345 333 343
289 289 282 277 278 282 271 271 269 267 266 275 271 267 268 263 222 242 253 238 262 277 299 272 264 252 240 250 262 257 267 263 244 226 256 263 282 292 308 85 222 328 335 333 27
288 286 281 277 273 274 271 263 267 268 282 272 260 252 273 259 252 235 237 228 228 247 272 286 283 277 241 242 264 250 266 282 244 139 273 298 318 301 298 286 286 286 311 310 316
280 279 277 274 270 270 267 281 274 268 270 263 274 286 275 262 257 263 268 260 259 247 240 251 254 264 266 243 262 250 268 254 291 249 256 270 275 270 290 280 277 288 286 287 293